Terminal Aerodrome Forecast
Issued by NWS Green Bay, WI

Home | Current Version | Previous Version | Text Only | Print | Product List | Glossary On
Versions: 1 2 3 4 5 6 7 8 9 10 11 12 13 14 15 16 17 18 19 20 21 22 23 24 25 26 27 28 29 30 31 32 33 34 35 36 37 38 39 40 41 42 43 44 45 46 47 48 49 50
000
FTUS43 KGRB 111922 AAA
TAFGRB
TAF AMD
KGRB 111922Z 1119/1218 27005KT P6SM SCT012 BKN035
     FM112300 32008KT P6SM BKN045
     FM120000 33010G16KT P6SM BKN050
     FM120100 33014G24KT P6SM SCT080=

USA.gov is the U.S. government's official web portal to all federal, state and local government web resources and services.